Regional Weather Roundup
Issued by NWS Green Bay, WI

Home | Current Version | Previous Version | Text Only | Print | Product List | Glossary On
Versions: 1 2 3 4 5 6 7 8 9 10 11 12 13 14 15 16 17 18 19 20 21 22 23 24 25 26 27 28 29 30 31 32 33 34 35 36 37 38 39 40 41 42 43 44 45 46 47 48 49 50
000
ASUS43 KGRB 052159
RWRGRB

NORTH-CENTRAL AND NORTHEAST WISCONSIN REGIONAL WEATHER ROUNDUP
NATIONAL WEATHER SERVICE GREEN BAY WI
500 PM CDT TUE MAY 05 2015

WIZ005-009-010>012-018-019-052300-
NORTH CENTRAL WISCONSIN

CITY           SKY/WX    TMP DP  RH WIND       PRES   REMARKS
IRONWOOD       SUNNY     72  30  21 S5G17     30.14F
MANITOWISH WTR NOT AVBL
ARBOR VITAE    NOT AVBL
EAGLE RIVER    NOT AVBL
LAND O LAKES   NOT AVBL
RHINELANDER    SUNNY     68  27  21 S12G18    30.23F
PHILLIPS       NOT AVBL
ANTIGO         NOT AVBL
TOMAHAWK       NOT AVBL
MERRILL        NOT AVBL
$$

WIZ013-073-052300-
NORTHEAST WISCONSIN

CITY           SKY/WX    TMP DP  RH WIND       PRES   REMARKS
IRON MOUNTAIN  SUNNY     67  28  23 SE14G21   30.24F
MARINETTE      MOSUNNY   61  28  29 E5        30.27F
$$

WIZ017-030-035>037-045-052300-
CENTRAL WISCONSIN

CITY           SKY/WX    TMP DP  RH WIND       PRES   REMARKS
MEDFORD        NOT AVBL
WAUSAU         PTSUNNY   66  22  18 SE13      30.21F
MOSINEE        MOSUNNY   63  25  23 E10G20    30.24F
MARSHFIELD     CLOUDY    64  32  30 SE15      30.22F
WISC RAPIDS    CLOUDY    63  36  36 SE12G18   30.24F
STEVENS POINT  NOT AVBL
WAUPACA        NOT AVBL
SHAWANO        NOT AVBL
CLINTONVILLE   NOT AVBL
$$

WIZ038-039-048-051-052300-
FOX VALLEY

CITY           SKY/WX    TMP DP  RH WIND       PRES   REMARKS
NWS GREEN BAY  CLOUDY    65  20  17 SE10      30.26F
APPLETON       PTSUNNY   63  34  34 SE10      30.26F
OSHKOSH        CLOUDY    59  46  62 SE9       30.24F
FOND DU LAC    LGT RAIN  56  48  74 SE7       30.25F
$$

WIZ022-050-052-052300-
EAST CENTRAL WISCONSIN

CITY           SKY/WX    TMP DP  RH WIND       PRES   REMARKS
STURGEON BAY   PTSUNNY   61  25  25 E7        30.30F
MANITOWOC      NOT AVBL
SHEBOYGAN      CLOUDY    54  44  69 SE5       30.25F
$$

LMZ563-521-522-541>543-052300-
LAKESHORE

STATION/POSITION TIME  TEMP    WIND        PRES    VSBY  WAVE
                       AIR SEA DIR/SP/G                  HT/PER
                 (UTC) (F)     (DEG/KT/KT) (MB)    (MI)  (FT/S)
SHEBOYGAN LKSHOR 2100   44      10/  5/  5 1026.3F
KEWAUNEE LKSHORE 2100   47      50/  4/  6 1024.6F
TWO RIVERS CG    2100   49                 1025.3      6   1
NORTHPORT PIER   2100   49     140/  3/  4 1025.1F
SISTER BAY LKSHO 2100   70     120/  7/ 11   N/A
STURGEON BAY CG  2100   50      60/  7     1026.3      6   1
CHAMBERS ISLAND  2100   50     340/  4/  8 1025.4F
MENOMINEE LKSHOR 2100   51      30/  7/  7 1025.9F
$$



USA.gov is the U.S. government's official web portal to all federal, state and local government web resources and services.